This is the latest recevied weather packets stored in our database for station/object OE6PLD-13. If no packets are shown the sender has not sent any weather packets the latest 10 day(s).
| Time | Temp. | Humidity | Pressure | Rain* | Wind** | Luminosity | Snow |
|---|---|---|---|---|---|---|---|
| 1778144499 | 18.89° C | 68% | 1017.1 hPa | 0.76 mm | - | 383 W/m² | - |
| 1778144315 | 18.33° C | 69% | 1017 hPa | 0.76 mm | - | 410 W/m² | - |
| 1778144132 | 17.78° C | 69% | 1017 hPa | 0.76 mm | - | 261 W/m² | - |
| 1778143949 | 18.33° C | 68% | 1017 hPa | 0.76 mm | - | 331 W/m² | - |
| 1778143765 | 18.33° C | 68% | 1017 hPa | 0.76 mm | - | 232 W/m² | - |
| 1778143582 | 18.89° C | 67% | 1016.9 hPa | 0.76 mm | - | 246 W/m² | - |
| 1778143399 | 18.89° C | 67% | 1016.8 hPa | 0.76 mm | - | 275 W/m² | - |
| 1778143215 | 18.89° C | 68% | 1016.9 hPa | 0.76 mm | - | 305 W/m² | - |
| 1778143032 | 18.33° C | 71% | 1016.8 hPa | 0.76 mm | - | 398 W/m² | - |
| 1778142848 | 17.78° C | 70% | 1016.9 hPa | 0.76 mm | - | 472 W/m² | - |
| 1778142665 | 17.78° C | 70% | 1016.9 hPa | 0.76 mm | - | 370 W/m² | - |
| 1778142481 | 18.33° C | 70% | 1016.7 hPa | 0.76 mm | - | 507 W/m² | - |
| 1778142298 | 18.89° C | 68% | 1016.8 hPa | 0.76 mm | - | 415 W/m² | - |
| 1778142115 | 18.33° C | 68% | 1017 hPa | 0.76 mm | - | 528 W/m² | - |
| 1778141932 | 17.78° C | 71% | 1016.7 hPa | 0.76 mm | - | 343 W/m² | - |
| 1778141748 | 17.78° C | 71% | 1016.9 hPa | 0.76 mm | - | 284 W/m² | - |
| 1778141565 | 17.78° C | 70% | 1016.7 hPa | 0.76 mm | - | 213 W/m² | - |
| 1778141381 | 17.78° C | 71% | 1016.7 hPa | 0.76 mm | - | 197 W/m² | - |
| 1778141198 | 17.78° C | 71% | 1016.9 hPa | 0.76 mm | - | 198 W/m² | - |
| 1778141015 | 17.78° C | 70% | 1016.9 hPa | 0.76 mm | - | 184 W/m² | - |
| 1778140831 | 17.78° C | 72% | 1016.7 hPa | 0.76 mm | - | 220 W/m² | - |
| 1778140648 | 17.78° C | 70% | 1016.7 hPa | 0.76 mm | - | 290 W/m² | - |
| 1778140465 | 17.78° C | 70% | 1016.7 hPa | 0.76 mm | - | 238 W/m² | - |
| 1778140281 | 17.78° C | 70% | 1016.7 hPa | 0.76 mm | - | 234 W/m² | - |
| 1778140098 | 17.22° C | 71% | 1016.7 hPa | 0.76 mm | - | 224 W/m² | - |
* Rain latest hour (hover to see other rain measurements)
** Current wind speed in m/s (hover to see current wind gust speed)